Punta Cana, Dominican Republic

8:03 AM AST on February 13, 2016 (GMT -0400)
Punta Cana International

Weather History for MDPC - October, 2012

Change the Weather History Date:

Wednesday, October 3, 2012

  Actual Average Record
Temperature  
Mean Temperature 84 °F -  
Max Temperature 91 °F 85 °F 91 °F (2012)
Min Temperature 76 °F 75 °F 68 °F (2000)
Cooling Degree Days 18    
Growing Degree Days 34 (Base 50)    
Moisture  
Dew Point 75 °F    
Average Humidity 72    
Maximum Humidity 89    
Minimum Humidity 57    
Precipitation  
Precipitation 0.12 in - - ()
Sea Level Pressure  
Sea Level Pressure 30.02 in    
Wind  
Wind Speed 7 mph ()    
Max Wind Speed 12 mph    
Max Gust Speed -    
Visibility 6.9 miles    
Events      
Averages and records for this station are not official NWS values.
T = Trace of Precipitation, MM = Missing Value Source: Averaged Metar Reports

Daily Weather History Graph

Daily Weather History Graph

Search for Another Location

Airport or City:

Trip Planner

Search our weather history database for the weather conditions in past years. The results will help you decide how hot, cold, wet, or windy it might be!

Date:

Astronomy

Oct. 03, 2012 Rise Set
Actual Time 6:24 AM AST 6:19 PM AST
Civil Twilight 6:02 AM AST 6:41 PM AST
Nautical Twilight 5:37 AM AST 7:07 PM AST
Astronomical Twilight 5:12 AM AST 7:32 PM AST
Moon 8:43 PM AST (10/3) 9:12 AM AST (10/3)
Length of Visible Light 12h 39m
Length of Day
11h 55m
Waning Gibbous, 89% of the Moon is Illuminated
Oct 3
Waning Gibbous
Oct 8
Last Quarter
Oct 15
New
Oct 21
First Quarter
Oct 29
Full

Hourly Weather History & Observations

Time (AST) Temp. Heat Index Dew Point Humidity Pressure Visibility Wind Dir Wind Speed Gust Speed Precip Events Conditions
12:00 AM 84.2 °F 94.1 °F 77.0 °F 79% 30.04 in 6.2 mi SE 5.8 mph - N/A   Scattered Clouds
1:00 AM 82.4 °F 89.5 °F 75.2 °F 79% 30.01 in 6.2 mi Calm Calm - N/A   Scattered Clouds
2:00 AM 82.4 °F 89.5 °F 75.2 °F 79% 30.01 in 6.2 mi SE 5.8 mph - N/A   Scattered Clouds
3:00 AM 82.4 °F 89.5 °F 75.2 °F 79% 30.01 in 6.2 mi ESE 5.8 mph - N/A   Mostly Cloudy
4:00 AM 82.4 °F 89.5 °F 75.2 °F 79% 29.98 in 6.2 mi ESE 5.8 mph - N/A   Scattered Clouds
5:00 AM 82 °F - 76 °F 76% 30.01 in 10 mi East 6.7 mph - -   Partly Cloudy
5:00 AM 82.4 °F 89.5 °F 75.2 °F 79% 29.98 in 6.2 mi ESE 5.8 mph - N/A   Scattered Clouds
6:00 AM 77.0 °F - 73.4 °F 89% 30.01 in 5.0 mi NE 11.5 mph - N/A   Scattered Clouds
7:00 AM - - - N/A% 30.01 in - North - - N/A   Scattered Clouds
8:00 AM 82 °F - 78 °F 83% 30.04 in 10 mi ESE 11.2 mph - -   Partly Cloudy
8:00 AM 82.4 °F 90.9 °F 77.0 °F 84% 30.04 in 6.2 mi ESE 11.5 mph - N/A   Scattered Clouds
9:00 AM 84.2 °F 94.1 °F 77.0 °F 79% 30.06 in 6.2 mi ESE 11.5 mph - N/A   Scattered Clouds
10:00 AM 87.8 °F 99.7 °F 77.0 °F 70% 30.06 in 6.2 mi ESE 11.5 mph - N/A   Scattered Clouds
11:00 AM 89 °F - 76 °F 57% 30.08 in 10 mi ESE 11.2 mph - -   Partly Cloudy
11:00 AM 89.6 °F 99.8 °F 75.2 °F 62% 30.06 in 6.2 mi East 11.5 mph - N/A   Scattered Clouds
12:00 PM 89.6 °F 99.8 °F 75.2 °F 62% 30.01 in 6.2 mi ESE 11.5 mph - N/A   Partly Cloudy
1:00 PM 89.6 °F 99.8 °F 75.2 °F 62% 30.04 in 6.2 mi East 11.5 mph - N/A   Partly Cloudy
2:00 PM 89.6 °F 99.8 °F 75.2 °F 62% 30.01 in 6.2 mi East 9.2 mph - N/A   Scattered Clouds
3:00 PM 87.8 °F 95.6 °F 73.4 °F 62% 29.98 in 6.2 mi East 11.5 mph - N/A   Scattered Clouds
4:00 PM 87.8 °F 95.6 °F 73.4 °F 62% 29.98 in 6.2 mi East 11.5 mph - N/A   Scattered Clouds
5:00 PM 86 °F - 74 °F 61% 29.99 in 10 mi East 11.2 mph - -   Scattered Clouds
5:00 PM 86.0 °F 95.1 °F 75.2 °F 70% 29.98 in 6.2 mi East 11.5 mph - N/A   Scattered Clouds
6:00 PM 84.2 °F 90.9 °F 73.4 °F 70% 29.98 in 6.2 mi East 11.5 mph - N/A   Partly Cloudy
7:00 PM 82.4 °F 88.2 °F 73.4 °F 74% 29.98 in 6.2 mi East 11.5 mph - N/A   Scattered Clouds
8:00 PM 85 °F - 74 °F 63% 30.01 in 10 mi East 11.2 mph - -   Partly Cloudy
8:00 PM 84.2 °F 90.9 °F 73.4 °F 70% 30.01 in 6.2 mi East 11.5 mph - N/A   Scattered Clouds
9:00 PM 84.2 °F 92.3 °F 75.2 °F 74% 30.01 in 6.2 mi East 11.5 mph - N/A   Scattered Clouds
10:00 PM 84.2 °F 90.9 °F 73.4 °F 70% 30.04 in 6.2 mi East 9.2 mph - N/A   Scattered Clouds
11:00 PM 82 °F - 72 °F 66% 30.04 in 10 mi East 6.7 mph - -  
11:00 PM 82.4 °F 88.2 °F 73.4 °F 74% 30.04 in 6.2 mi East 6.9 mph - N/A   Partly Cloudy